User: anonymous   Login
Location: Kernascl�den
(48.0062°N, 3.3198°W)
Time: 10:22:06
(UTC+00:00)
Language:

CSL-04 Debris - Orbit

View from above orbital plane
View from above orbital plane
View from above satellite
View from above satellite

Ground track
Ground track

The orbit data is extracted from the following two-line orbital elements,

1 25733U 99025D   21100.05931369  .00000120  00000-0  82700-4 0  9999
2 25733  98.9166 135.3579 0014762 194.5076 165.5676 14.16448768131680
Epoch (UTC): 10 April 2021 01:25:24
Eccentricity: 0.0014762
inclination: 98.9166°
perigee height: 827 km
apogee height: 848 km
right ascension of ascending node: 135.3579°
argument of perigee: 194.5076°
revolutions per day: 14.16448768
mean anomaly at epoch: 165.5676°
orbit number at epoch: 13168

The dashed part of the orbit path shows where the satellite is in the earth's shadow,  

DLR